Voltar ao catálogo

STARLINK-6115

AtivoComunicaçõesVLEO
NORAD 56123·PAYLOAD·🇺🇸 United States

Lançado Mar 29, 2023 de Cape Canaveral Space Force Station

Loading…

Próximas Passagens (próximas 24 horas)

TLE

AtualizadoSource: CelesTrak SupGP

Época: Sep 15, 2026, 02:00 UTC

1 56123C 23046AG  26258.08381944  .00027090  00000+0  98127-3 0  2587
2 56123  43.0024 157.8904 0001467 272.5602 306.4505 15.27562844    16

Acompanhe STARLINK-6115 em tempo real com AllMySat

Download on the App Store